Date String (YYYY-MM-DD hh:mm:ss) UTC,Instrument flags,Ambient pressure (hPa),Sample flow (lpm),Bypass flow (lpm),Sample temperature (°C),Ambient temperature (°C),ASC tube jacket temperature (°C),LED temperature (°C),Box temperature (°C),Sample RH (%),Span deviation,Mass concentration (μg/m³),Mass concentration (μg/m³),Mass concentration (μg/m³)
DateTimeUTC,F1_M11,P_M11,Q1_M11,Q2_M11,T1_M11,T2_M11,T3_M11,T4_M11,T5_M11,U1_M11,ZSPAN_M11,X0_M11,X2_M11,X1_M11
2021-12-27 15:00:00,,0816.3,5.00,0.00,22.2,22.0,00.0,31.2,23.9,10.0,0000.0,0004.78,0001.62,0000.92
2021-12-27 15:01:00,,0816.3,4.99,0.00,22.2,21.9,00.0,31.2,23.9,09.9,0000.0,0005.01,0001.74,0000.99
2021-12-27 15:02:00,,0816.2,5.00,0.00,22.2,21.8,00.0,31.2,23.9,10.0,0000.0,0005.51,0001.86,0001.06
2021-12-27 15:03:00,,0816.2,4.99,0.00,22.2,21.8,00.0,31.2,23.9,10.0,0000.0,0006.56,0002.01,0001.12
2021-12-27 15:04:00,,0816.2,5.01,0.00,22.2,21.7,00.0,31.2,23.9,10.0,0000.0,0006.95,0002.13,0001.17
2021-12-27 15:05:00,,0816.2,5.00,0.00,22.2,21.7,00.0,31.2,23.9,09.9,0000.0,0006.23,0002.22,0001.19
2021-12-27 15:06:00,,0816.1,5.00,0.00,22.2,21.7,00.0,31.2,23.9,09.9,0000.0,0006.97,0002.30,0001.21
2021-12-27 15:07:00,,0816.2,5.01,0.00,22.2,21.6,00.0,31.2,23.9,09.9,0000.0,0007.34,0002.27,0001.19
2021-12-27 15:08:00,,0816.1,5.00,0.00,22.2,21.6,00.0,31.2,23.9,09.9,0000.0,0007.99,0002.31,0001.16
2021-12-27 15:09:00,,0816.2,4.99,0.00,22.2,21.6,00.0,31.2,23.9,09.9,0000.0,0008.34,0002.35,0001.14
2021-12-27 15:10:00,,0816.1,5.01,0.00,22.2,21.6,00.0,31.2,23.9,09.9,0000.0,0008.16,0002.30,0001.13
2021-12-27 15:11:00,,0816.1,5.01,0.00,22.2,21.6,00.0,31.2,23.9,09.9,0000.0,0008.23,0002.34,0001.13
2021-12-27 15:12:00,,0816.1,4.99,0.00,22.2,21.6,00.0,31.2,23.8,09.9,0000.0,0008.49,0002.42,0001.14
2021-12-27 15:13:00,,0816.1,5.01,0.00,22.2,21.6,00.0,31.2,23.8,09.9,0000.0,0008.66,0002.48,0001.17
2021-12-27 15:14:00,,0816.1,5.00,0.00,22.2,21.6,00.0,31.2,23.8,09.9,0000.0,0008.37,0002.54,0001.19
2021-12-27 15:15:00,,0816.1,5.00,0.00,22.2,21.5,00.0,31.2,23.8,09.9,0000.0,0008.60,0002.60,0001.21
2021-12-27 15:16:00,,0816.1,5.00,0.00,22.2,21.5,00.0,31.2,23.8,09.9,0000.0,0008.96,0002.61,0001.23
2021-12-27 15:17:00,,0816.1,5.01,0.00,22.2,21.5,00.0,31.2,23.8,09.9,0000.0,0009.10,0002.73,0001.25
2021-12-27 15:18:00,,0816.1,4.99,0.00,22.2,21.5,00.0,31.2,23.8,09.9,0000.0,0009.05,0002.76,0001.26
2021-12-27 15:19:00,,0816.1,5.00,0.00,22.1,21.5,00.0,31.2,23.8,09.9,0000.0,0009.32,0002.75,0001.26
2021-12-27 15:20:00,,0816.1,5.00,0.00,22.1,21.4,00.0,31.1,23.8,09.9,0000.0,0008.79,0002.71,0001.26
2021-12-27 15:21:00,,0816.2,4.99,0.00,22.1,21.4,00.0,31.1,23.8,09.9,0000.0,0009.12,0002.72,0001.25
2021-12-27 15:22:00,,0816.1,5.00,0.00,22.1,21.4,00.0,31.1,23.8,10.0,0000.0,0009.80,0002.75,0001.24
2021-12-27 15:23:00,,0816.1,4.98,0.00,22.1,21.3,00.0,31.1,23.7,10.0,0000.0,0009.71,0002.73,0001.24
2021-12-27 15:24:00,,0816.2,5.00,0.00,22.1,21.3,00.0,31.1,23.7,10.0,0000.0,0009.56,0002.74,0001.23
2021-12-27 15:25:00,,0816.1,5.01,0.00,22.1,21.3,00.0,31.1,23.7,10.1,0000.0,0009.81,0002.79,0001.23
2021-12-27 15:26:00,,0816.1,5.01,0.00,22.1,21.3,00.0,31.1,23.7,10.2,0000.0,0009.58,0002.73,0001.22
2021-12-27 15:27:00,,0816.1,4.99,0.00,22.1,21.4,00.0,31.1,23.7,10.2,0000.0,0008.91,0002.64,0001.20
2021-12-27 15:28:00,,0816.1,5.00,0.00,22.1,21.4,00.0,31.1,23.7,10.2,0000.0,0008.56,0002.57,0001.19
2021-12-27 15:29:00,,0816.1,5.00,0.00,22.0,21.4,00.0,31.1,23.7,10.3,0000.0,0008.46,0002.52,0001.18
2021-12-27 15:30:00,,0816.0,5.01,0.00,22.1,22.0,00.0,31.1,23.8,10.3,0000.0,0008.18,0002.50,0001.20
2021-12-27 15:31:00,,0816.0,4.99,0.00,22.2,22.9,00.0,31.2,24.1,10.2,0000.0,0008.52,0002.49,0001.21
2021-12-27 15:32:00,,0816.0,5.00,0.00,22.4,23.6,00.0,31.2,24.4,10.1,0000.0,0008.60,0002.47,0001.21
2021-12-27 15:33:00,,0816.0,5.00,0.00,22.5,23.4,00.0,31.2,24.4,10.0,0000.0,0007.89,0002.46,0001.23
2021-12-27 15:34:00,,0815.9,4.99,0.00,22.5,23.1,00.0,31.3,24.4,10.0,0000.0,0008.27,0002.40,0001.21
2021-12-27 15:35:00,,0815.9,5.00,0.00,22.5,22.8,00.0,31.3,24.3,10.0,0000.0,0008.58,0002.40,0001.21
2021-12-27 15:36:00,,0815.9,5.01,0.00,22.5,22.6,00.0,31.3,24.2,10.1,0000.0,0009.79,0002.31,0001.20
2021-12-27 15:37:00,,0815.9,5.00,0.00,22.5,22.4,00.0,31.3,24.2,10.1,0000.0,0010.11,0002.19,0001.18
2021-12-27 15:38:00,,0815.9,4.99,0.00,22.4,22.2,00.0,31.3,24.1,10.1,0000.0,0010.65,0002.15,0001.18
2021-12-27 15:39:00,,0815.9,5.01,0.00,22.4,22.1,00.0,31.3,24.0,10.1,0000.0,0010.65,0002.13,0001.17
2021-12-27 15:40:00,,0815.9,4.98,0.00,22.3,21.9,00.0,31.3,23.9,10.2,0000.0,0010.88,0002.13,0001.17
2021-12-27 15:41:00,,0815.8,5.01,0.00,22.3,21.8,00.0,31.3,23.9,10.2,0000.0,0010.75,0002.10,0001.16
2021-12-27 15:42:00,,0815.8,5.00,0.00,22.3,21.7,00.0,31.3,23.9,10.2,0000.0,0010.25,0002.10,0001.16
2021-12-27 15:43:00,,0815.8,4.98,0.00,22.2,21.7,00.0,31.3,23.9,10.2,0000.0,0010.13,0002.12,0001.16
2021-12-27 15:44:00,,0815.8,5.01,0.00,22.2,21.6,00.0,31.3,23.8,10.3,0000.0,0010.30,0002.15,0001.15
2021-12-27 15:45:00,,0815.8,5.00,0.00,22.2,21.6,00.0,31.3,23.8,10.3,0000.0,0010.08,0002.18,0001.16
2021-12-27 15:46:00,,0815.8,4.99,0.00,22.2,21.6,00.0,31.3,23.8,10.3,0000.0,0009.62,0002.19,0001.16
2021-12-27 15:47:00,,0815.8,5.00,0.00,22.2,21.5,00.0,31.2,23.8,10.3,0000.0,0009.46,0002.23,0001.17
2021-12-27 15:48:00,,0815.8,4.99,0.00,22.1,21.5,00.0,31.2,23.8,10.4,0000.0,0009.09,0002.34,0001.19
2021-12-27 15:49:00,,0815.8,5.00,0.00,22.1,21.5,00.0,31.2,23.8,10.4,0000.0,0008.73,0002.47,0001.22
2021-12-27 15:50:00,,0815.8,5.00,0.00,22.1,21.4,00.0,31.2,23.7,10.5,0000.0,0009.18,0002.57,0001.25
2021-12-27 15:51:00,,0815.8,5.00,0.00,22.1,21.4,00.0,31.2,23.7,10.5,0000.0,0009.68,0002.63,0001.27
2021-12-27 15:52:00,,0815.9,5.01,0.00,22.1,21.4,00.0,31.2,23.8,10.5,0000.0,0010.08,0002.70,0001.30
2021-12-27 15:53:00,,0815.9,4.99,0.00,22.1,21.4,00.0,31.2,23.8,10.5,0000.0,0010.24,0002.82,0001.33
2021-12-27 15:54:00,,0815.9,5.00,0.00,22.1,21.4,00.0,31.2,23.7,10.5,0000.0,0010.54,0002.93,0001.36
2021-12-27 15:55:00,,0816.0,5.01,0.00,22.1,21.4,00.0,31.2,23.6,10.5,0000.0,0010.30,0002.99,0001.39
2021-12-27 15:56:00,,0815.9,5.00,0.00,22.0,21.3,00.0,31.1,23.6,10.6,0000.0,0010.74,0003.08,0001.42
2021-12-27 15:57:00,,0815.9,5.00,0.00,22.0,21.3,00.0,31.1,23.6,10.6,0000.0,0011.90,0003.14,0001.46
2021-12-27 15:58:00,,0815.9,4.99,0.00,22.0,21.3,00.0,31.1,23.6,10.6,0000.0,0012.17,0003.16,0001.50
2021-12-27 15:59:00,,0815.9,5.00,0.00,22.0,21.3,00.0,31.1,23.6,10.6,0000.0,0012.22,0003.20,0001.53
